Dewpoint
65 61 65 62 54 54 47 46 50 43 43 45 45 42 43 45 47 48 63 62 70 70 72 73 72 72 70 71 70 70 70 69 69 69 69 69 69 69 70 71 71 72 71 71 71 71 71 71 71
64 60 61 59 50 45 43 48 45 43 44 45 45 42 42 48 60 61 61 60 67 70 71 73 72 73 72 71 70 69 68 68 67 67 67 67 67 68 68 68 68 70 72 70 72 71 71 71 71
62 59 54 53 50 43 39 45 45 44 45 44 43 44 41 45 60 59 62 59 67 67 71 72 73 73 72 71 70 68 67 66 65 65 64 65 65 65 66 66 67 69 69 69 70 71 72 71 72
53 56 52 45 43 45 43 44 43 45 46 45 44 42 45 47 59 60 60 58 62 65 71 74 73 73 72 71 70 67 66 65 64 65 64 64 64 64 65 64 64 66 67 68 68 68 70 71 72
51 53 48 46 43 40 44 44 42 42 43 45 44 42 45 53 58 61 59 57 66 70 72 73 73 73 72 71 69 67 67 67 64 63 63 63 63 62 63 63 62 63 64 65 66 67 69 72 71
45 48 38 35 34 33 31 38 39 38 38 42 43 42 45 53 59 61 61 59 67 70 72 73 74 73 71 70 69 68 66 67 63 63 63 63 62 61 62 62 61 61 61 62 64 66 68 70 70
43 42 36 34 33 29 30 33 36 34 34 36 43 40 46 51 57 59 59 60 65 68 70 73 73 72 71 70 68 68 67 65 64 63 63 62 62 61 60 61 61 60 60 61 61 62 66 68 67
43 42 35 31 27 25 30 26 31 30 33 35 36 40 43 48 56 58 58 58 61 66 69 72 71 71 71 70 70 68 67 65 64 63 63 62 61 59 60 59 59 59 58 58 59 59 60 62 64
42 26 25 22 22 25 28 24 26 26 29 33 34 39 40 47 55 56 56 56 58 61 67 71 71 70 69 68 69 68 67 65 64 62 63 61 59 59 59 58 57 56 56 55 54 52 52 55 57
35 32 23 27 22 22 23 25 26 23 21 22 25 29 44 48 52 55 54 54 55 54 57 68 70 70 68 67 68 68 66 65 63 62 61 60 58 57 57 56 55 52 50 48 46 44 45 47 49
30 22 27 25 23 25 23 25 27 24 20 22 25 28 36 46 49 53 53 54 53 53 52 62 68 67 67 65 67 66 64 62 61 60 59 58 56 57 54 53 52 48 46 43 42 38 36 35 39
25 28 27 26 26 26 24 26 24 25 24 25 26 25 31 43 46 48 51 52 53 52 52 53 65 65 65 64 65 64 62 60 58 56 56 52 53 52 50 48 46 40 43 41 38 34 33 31 27
21 22 27 27 27 25 25 23 24 24 26 26 25 25 25 27 40 44 48 50 51 50 52 52 54 64 62 63 63 60 58 58 54 51 50 46 47 47 48 45 45 42 38 33 33 31 30 26 25
25 27 27 25 22 23 21 22 25 24 25 25 24 24 25 24 25 32 34 45 49 49 49 53 52 53 58 60 60 58 54 54 49 45 44 43 43 41 43 41 40 37 35 34 32 31 29 27 26
24 22 23 22 23 23 24 21 19 20 21 22 21 17 16 17 23 32 33 33 39 44 47 53 53 53 53 57 57 56 52 48 43 39 38 40 41 39 38 37 37 36 34 33 31 30 30 29 28
18 21 16 18 20 26 18 16 20 20 19 16 15 16 17 31 32 32 34 35 36 35 38 46 53 54 53 53 55 54 52 43 38 38 37 37 39 39 38 37 37 36 34 32 30 28 28 29 29
22 14 12 10 14 20 22 15 18 21 19 18 17 19 29 30 31 31 32 33 34 35 36 39 41 47 55 55 53 54 52 45 39 39 38 36 38 40 38 37 37 37 35 33 32 33 30 30 31
13 10 10 9 12 19 20 21 22 23 23 27 28 28 26 25 26 28 28 29 31 33 34 35 38 39 41 52 54 52 50 46 41 39 39 37 38 40 39 39 38 38 35 33 34 33 34 33 32
18 17 17 19 21 22 21 20 21 28 27 22 20 19 20 22 24 26 27 26 27 32 33 33 35 37 40 39 40 50 49 47 43 40 39 39 38 38 39 40 39 38 36 35 35 34 31 31 32
20 20 20 22 25 23 21 20 25 22 21 19 18 18 19 22 24 25 26 27 28 31 33 32 32 35 39 40 41 42 49 47 45 43 41 40 39 39 40 40 40 39 37 37 36 33 34 32 32
21 21 22 22 25 24 21 19 25 22 21 21 19 19 21 23 24 25 26 27 28 28 33 32 31 33 37 40 41 40 40 45 45 44 42 40 39 40 40 40 40 39 39 37 37 34 33 32 35
20 24 23 23 23 16 24 19 23 22 22 19 13 16 21 23 24 25 25 27 28 29 31 34 33 35 36 38 39 40 39 39 42 47 45 43 41 40 40 40 41 40 40 39 38 37 35 33 32
22 25 25 26 25 25 24 22 24 24 12 7 8 8 12 23 23 24 25 27 28 30 30 32 35 34 36 36 38 40 40 39 40 44 46 44 43 40 40 40 41 40 40 39 39 38 37 36 34
26 24 16 20 22 17 18 21 23 19 8 9 10 10 10 12 23 23 25 26 27 29 29 31 31 33 36 35 36 37 39 39 38 38 44 45 44 42 41 40 40 40 40 40 39 39 38 37 35
19 17 12 12 16 16 20 13 16 8 10 11 11 10 11 11 22 23 24 24 25 26 25 27 28 31 34 31 31 34 39 39 39 38 39 47 45 43 41 40 39 39 40 40 40 39 38 37 36
19 19 18 7 12 18 18 8 12 10 13 13 12 11 10 11 22 23 23 23 25 24 24 26 27 31 29 29 29 30 39 41 41 40 38 38 46 44 42 40 39 38 39 40 39 39 38 37 36
19 14 15 13 18 15 17 14 10 12 13 13 13 12 9 10 20 21 22 22 24 23 23 25 28 26 26 27 28 30 39 39 40 40 40 38 40 45 42 40 39 38 38 39 39 38 37 36 35
15 17 13 10 3 4 6 9 14 11 13 14 13 12 12 15 21 22 23 23 24 23 23 26 26 26 26 27 28 33 38 38 39 41 41 39 37 44 43 41 39 37 37 38 38 38 36 35 35
8 6 8 9 7 3 3 7 13 14 15 14 13 13 13 19 22 22 22 22 23 23 25 25 25 26 26 27 30 35 35 37 40 41 42 39 37 40 44 41 39 37 36 38 37 37 37 34 34
11 7 7 5 7 15 14 11 15 16 15 14 14 14 14 21 22 22 22 22 23 23 24 24 25 26 27 31 31 33 34 37 40 42 41 40 39 36 40 41 39 37 36 37 36 36 36 34 33
Wind_Speed
15 14 3 3 4 3 3 8 4 6 6 6 7 2 8 4 4 1 4 15 21 20 16 14 15 15 14 13 13 14 15 14 13 13 12 13 13 13 13 15 14 14 12 12 12 12 12 12 11
9 7 4 2 3 3 3 5 8 11 7 4 4 2 7 3 4 8 10 19 22 21 18 15 16 16 14 15 14 14 14 14 14 14 14 14 14 14 14 13 12 10 14 13 12 10 11 11 9
8 5 3 1 3 3 1 4 8 9 8 3 3 1 1 7 8 21 8 21 23 20 20 18 17 16 16 16 15 14 15 14 14 14 14 14 13 13 14 14 12 10 9 11 13 12 10 9 9
3 4 2 1 9 7 3 3 4 8 4 6 3 5 4 3 18 17 21 22 17 19 19 22 21 18 17 16 15 14 14 13 13 14 14 14 13 12 13 13 13 11 9 9 9 9 8 7 8
3 2 3 3 10 3 7 9 5 1 3 7 8 3 8 3 15 24 23 20 21 19 19 20 21 19 17 16 14 14 13 13 13 13 13 13 13 13 12 12 12 12 11 10 8 7 8 8 10
3 1 3 7 9 12 4 12 10 12 10 7 3 2 5 12 19 21 21 22 22 22 19 19 21 20 17 15 16 14 13 13 13 13 12 12 12 12 12 12 11 11 11 10 9 8 7 9 10
1 2 4 9 13 13 12 9 6 5 9 6 4 1 2 9 14 21 19 19 22 21 20 19 19 19 17 15 16 16 15 14 13 13 13 12 12 11 11 12 11 10 10 10 9 9 8 7 6
1 0 3 3 9 14 10 11 10 11 6 3 3 3 5 13 17 19 17 17 19 21 21 20 19 18 18 16 16 16 15 15 14 13 13 13 12 12 12 11 10 10 9 9 8 8 8 6 5
1 0 6 4 7 8 10 13 12 13 8 6 4 5 9 23 19 18 16 12 16 20 22 21 21 20 19 19 17 17 17 15 15 14 15 14 12 11 11 11 10 9 9 8 7 6 5 3 3
3 3 5 5 5 8 10 8 14 11 18 15 13 8 4 22 20 22 20 21 19 21 23 24 23 22 20 17 18 16 14 13 12 12 13 14 13 13 11 11 10 9 9 8 7 5 2 3 3
4 6 5 14 12 6 8 11 6 11 14 15 13 11 9 14 16 19 19 20 21 23 20 22 24 23 22 18 17 15 15 14 14 15 15 13 10 14 12 10 9 8 8 5 4 4 4 6 4
6 10 12 9 10 6 10 7 12 15 26 20 19 12 1 17 20 20 18 18 19 20 25 23 24 22 21 16 18 18 17 16 15 17 18 16 15 17 14 13 12 10 8 8 7 5 5 4 5
9 12 9 12 20 14 11 15 15 19 23 21 23 21 17 8 15 17 20 20 18 16 22 25 23 26 21 20 18 17 17 18 18 18 18 18 19 17 16 15 14 13 10 10 10 7 6 5 6
5 11 17 15 22 13 18 21 5 13 14 17 14 14 14 13 16 18 15 23 23 22 20 26 26 24 25 21 22 20 18 19 19 19 21 20 20 18 18 16 17 14 13 11 11 10 8 7 5
9 15 17 18 14 7 3 4 9 16 11 8 7 6 9 11 23 26 29 17 17 24 19 26 27 25 23 26 26 22 22 21 22 22 23 21 19 18 17 18 15 15 13 13 10 9 7 7 7
5 1 5 9 5 1 3 19 12 14 11 15 15 14 12 28 26 27 28 29 32 26 31 14 19 25 25 21 23 23 23 23 23 22 21 21 20 19 18 17 17 16 14 13 11 11 9 7 7
3 6 9 11 13 4 6 18 12 11 12 14 12 8 24 24 25 26 28 26 31 32 31 29 30 21 13 21 18 20 21 21 21 21 22 22 20 19 18 18 18 17 16 14 14 8 9 9 8
7 9 8 13 11 20 16 21 25 18 11 16 28 24 22 23 22 22 27 26 25 27 27 26 25 29 24 17 12 9 15 18 19 21 22 24 21 19 18 19 19 17 18 16 12 12 9 7 9
5 8 14 18 16 12 14 23 29 20 24 27 24 22 20 21 19 22 26 27 27 27 28 27 25 23 22 24 21 14 12 23 18 20 24 25 23 24 22 20 18 19 21 20 17 11 13 10 7
10 14 18 13 13 13 17 24 20 26 22 21 20 19 21 21 23 25 26 27 28 25 25 27 26 20 15 18 17 11 13 11 17 19 18 21 23 23 22 22 21 20 18 18 18 16 9 11 11
11 8 8 10 15 8 5 6 11 14 18 20 17 16 20 20 21 23 26 26 26 28 27 27 27 25 19 15 13 20 19 15 7 10 19 22 24 25 25 25 22 21 19 22 20 20 17 15 12
9 6 13 16 13 4 9 7 6 14 17 18 20 21 20 21 20 20 22 25 25 25 25 24 24 25 24 24 22 15 13 17 16 16 16 17 22 23 24 24 24 23 19 20 21 18 19 15 15
8 11 16 18 14 7 3 6 3 16 15 18 20 20 17 15 18 19 21 21 19 20 23 24 22 22 20 23 23 21 16 14 19 20 19 20 17 22 23 24 23 23 21 20 20 18 20 17 17
9 12 25 9 5 4 5 14 8 3 9 15 15 17 16 17 14 15 14 15 15 15 19 18 19 21 18 21 21 23 26 21 18 20 22 19 19 18 22 23 23 23 22 21 22 19 20 22 15
18 9 7 2 2 6 10 7 8 12 18 18 16 14 12 14 8 12 14 17 18 18 21 20 21 20 14 16 19 21 23 21 20 20 21 20 18 17 21 24 24 22 23 22 20 21 20 22 22
9 1 2 6 4 5 24 7 12 16 13 10 10 9 9 12 4 7 8 10 10 15 20 22 25 18 17 16 18 19 19 17 18 18 21 23 22 23 22 27 27 26 23 23 23 21 20 20 22
5 4 3 4 7 7 6 5 6 9 11 14 14 15 11 11 6 8 9 7 4 10 15 17 15 21 25 22 19 19 13 15 20 22 20 21 24 23 24 25 27 26 23 25 24 23 24 21 21
1 3 2 2 5 6 9 8 10 13 16 19 24 23 17 3 6 9 10 14 18 21 21 18 17 18 19 23 23 16 13 15 18 20 22 23 27 23 25 26 28 26 25 25 24 23 21 24 22
5 3 1 2 6 7 9 8 7 11 21 33 40 37 29 17 17 19 20 18 18 15 8 11 16 18 21 22 20 19 21 18 16 17 19 23 24 25 24 27 27 28 27 25 27 25 24 26 23
3 2 1 4 6 5 3 22 10 22 32 34 28 24 16 8 10 13 15 17 17 11 14 19 19 18 17 17 18 22 22 22 15 16 22 20 22 28 16 21 26 28 28 27 29 27 25 27 25
Wind_Direction
317 309 212 346 45 42 113 328 250 50 80 67 54 26 86 116 75 285 178 165 142 148 148 146 144 141 140 138 129 123 114 112 107 100 95 89 87 82 82 78 76 66 87 85 82 79 74 74 88
317 321 37 54 77 19 353 262 282 101 106 87 144 46 100 114 109 140 139 163 150 149 149 149 152 145 150 146 138 131 123 120 118 110 103 96 94 92 94 88 75 75 76 91 85 82 75 76 87
312 260 358 58 208 153 128 272 241 127 119 91 56 38 105 134 148 155 186 163 148 155 151 153 153 149 147 148 145 138 130 127 125 118 113 108 101 99 99 93 83 74 84 80 79 75 77 77 87
323 6 323 300 295 275 268 269 133 140 131 146 146 113 74 201 162 176 156 157 142 153 150 155 155 155 153 153 152 146 138 132 130 124 120 117 113 108 103 101 95 87 88 88 91 89 76 92 97
4 34 328 289 300 301 237 234 102 55 310 192 180 167 154 59 128 142 154 162 134 138 148 153 156 158 160 159 158 154 150 143 136 132 129 124 120 113 111 107 103 98 92 90 91 87 90 117 100
348 34 333 315 315 323 347 65 47 27 6 15 166 131 178 135 135 155 161 170 144 148 149 153 155 159 164 164 163 161 160 156 151 145 140 135 129 123 118 114 110 107 105 101 94 87 94 91 99
78 23 257 295 301 320 336 343 54 24 341 354 349 33 134 151 159 163 174 178 146 149 150 151 155 161 164 169 172 169 168 166 162 156 153 148 139 132 128 124 119 115 113 110 102 95 91 92 101
150 104 269 286 302 300 346 0 13 18 278 306 3 257 184 198 179 168 178 185 149 155 156 155 156 161 165 171 178 178 179 175 171 167 162 155 149 143 139 130 130 126 123 120 115 107 102 100 106
87 273 261 272 334 306 341 359 342 336 349 328 289 267 209 177 170 170 181 192 172 160 162 160 164 172 171 172 182 186 185 184 180 176 170 166 161 151 144 145 140 138 137 134 136 134 124 101 83
165 197 239 205 316 314 324 349 322 329 314 295 299 331 155 165 175 179 186 195 192 182 174 168 171 176 176 177 173 175 183 185 182 181 184 177 172 160 152 152 153 151 150 150 151 138 140 183 236
194 222 227 289 289 302 307 317 305 319 287 277 294 297 194 185 188 194 201 198 203 199 186 168 177 180 178 179 174 171 178 181 185 191 200 186 188 169 157 164 167 169 163 161 143 136 118 123 141
239 244 261 278 310 295 285 288 282 266 267 271 283 297 305 195 199 209 216 217 215 206 199 184 177 180 186 177 177 175 177 184 193 203 205 187 176 167 169 176 185 184 190 197 185 157 147 117 92
266 278 288 296 298 292 291 278 267 272 267 271 278 286 288 272 229 229 226 226 230 222 213 199 173 183 185 171 179 176 183 185 194 197 207 190 189 181 182 190 193 200 191 179 168 171 171 154 123
290 303 300 298 279 271 269 270 270 275 284 283 277 283 278 273 250 240 235 230 230 233 216 203 195 181 177 175 180 182 185 190 192 195 202 190 192 187 193 194 192 192 189 183 177 180 180 173 159
294 296 305 281 276 238 195 304 245 284 328 351 350 337 346 335 16 32 24 347 257 222 216 199 198 198 183 179 179 184 186 187 188 192 192 188 194 193 196 189 192 195 190 183 178 186 168 167 162
266 279 312 331 36 304 199 275 263 283 297 307 311 310 313 66 50 38 34 28 23 36 23 350 214 197 198 189 185 185 182 181 185 189 193 192 195 195 194 192 195 195 191 186 179 175 173 189 194
8 306 309 331 339 349 221 284 280 273 283 294 296 0 68 52 42 34 37 36 37 35 30 25 26 10 243 195 188 189 186 181 185 183 189 193 194 197 196 198 202 196 192 188 183 184 182 190 196
303 315 295 306 314 332 317 300 312 304 307 58 78 74 64 53 43 37 33 31 35 35 35 32 29 25 19 10 348 182 184 188 184 185 187 190 196 196 198 204 202 195 189 188 187 190 190 193 203
288 303 302 299 304 360 327 318 325 359 77 77 70 63 55 51 43 36 32 25 25 30 29 28 27 22 31 19 0 348 250 197 197 191 190 191 194 201 197 203 201 194 191 194 193 188 196 197 169
314 306 304 301 359 352 317 307 58 70 79 82 76 65 58 48 38 29 27 24 26 16 18 17 14 17 32 18 6 356 333 280 227 200 194 189 195 197 195 198 203 198 197 199 198 190 182 200 184
315 306 330 310 333 302 334 329 108 86 92 82 71 71 63 52 40 31 25 20 16 11 4 11 5 358 4 11 2 355 358 358 309 246 201 205 200 196 195 195 196 200 195 203 204 200 189 186 201
315 336 328 319 341 330 33 289 181 117 89 67 53 49 54 52 44 37 28 19 17 8 5 358 360 1 356 356 354 352 346 335 319 285 259 222 203 200 198 194 192 195 199 202 206 201 198 179 191
266 313 305 292 276 306 339 207 49 104 61 44 45 40 38 45 46 35 30 22 8 5 4 358 349 355 351 350 350 342 327 316 316 315 268 235 221 200 198 195 193 194 197 207 203 203 201 191 186
312 334 307 300 197 220 307 216 160 34 77 42 28 28 27 25 35 38 32 20 3 1 357 348 346 338 342 354 347 345 334 326 328 321 304 248 225 206 200 197 197 198 197 200 205 204 202 200 189
0 3 329 19 188 230 4 343 139 104 70 46 20 11 15 5 33 33 21 6 355 2 354 334 338 331 344 347 344 335 329 332 331 325 317 286 237 219 202 195 196 197 201 199 195 198 204 203 204
318 181 61 298 289 286 329 254 180 121 86 55 31 353 355 352 21 25 7 347 354 356 349 342 328 335 335 328 327 323 314 327 320 320 316 309 267 234 213 201 201 202 198 198 194 196 200 198 204
345 23 183 285 277 277 240 85 148 113 42 24 8 2 338 340 3 359 339 322 323 347 334 328 351 345 334 319 310 305 307 324 320 313 312 310 297 252 217 203 201 200 195 198 195 196 199 196 199
173 176 329 6 287 272 269 241 205 14 355 350 350 347 328 339 351 356 345 351 342 337 344 351 336 331 321 314 306 296 305 305 304 304 305 310 305 269 224 209 203 199 197 196 192 197 192 192 197
340 317 319 229 204 235 278 246 148 21 353 344 344 339 341 350 1 2 355 341 318 312 320 322 324 309 305 308 308 307 303 295 299 302 313 320 315 301 240 214 205 200 197 196 195 196 190 193 194
154 224 234 222 273 261 283 269 24 356 338 334 318 320 322 335 350 336 331 328 315 322 321 320 309 312 303 300 310 302 300 296 298 306 308 311 314 305 291 224 209 200 197 197 195 193 193 190 192